Tracking 29892 objects as of 21-Nov-2024
HD Live streaming from Space Station
objects crossing your sky now

COSMOS 858

Track COSMOS 858 now!
10-day predictions
COSMOS 858 is classified as:


NORAD ID: 9443
Int'l Code: 1976-098A
Perigee: 773.2 km
Apogee: 792.4 km
Inclination: 74.0 °
Period: 100.4 minutes
Semi major axis: 7153 km
RCS: 2.2223 m2 (large)
Launch date: September 29, 1976
Source: Commonwealth of Independent States (former USSR) (CIS)
Launch site: PLESETSK MISSILE AND SPACE COMPLEX (PKMTR)
Your satellite tracking list
Your tracking list is empty




NASA's NSSDC Master Catalog

Two Line Element Set (TLE):
1 09443U 76098A   24325.92416395  .00000367  00000-0  13838-3 0  9997
2 09443  74.0472 127.9982 0013411  24.5834 335.5954 14.34811545516529
Source of the keplerian elements: AFSPC